Miscellaneous Local Product
Issued by NWS Hastings, NE

Home | Current Version | Previous Version | Text Only | Print | Product List | Glossary Off
Versions: 1 2 3 4 5 6 7 8 9 10 11 12 13 14 15 16 17 18 19 20 21 22 23 24 25 26 27 28 29 30 31 32 33 34 35 36 37 38 39 40 41 42 43 44 45 46 47 48 49 50

000
AXUS43 KGID 221502
MISGRI

GID CWA HOURLY WEATHER ROUNDUP
NATIONAL WEATHER SERVICE HASTINGS NE
1000 AM CDT TUE AUG 22 2017

NOTE: "FAIR" INDICATES FEW OR NO CLOUDS BELOW 12,000 FEET WITH NO
SIGNIFICANT WEATHER AND/OR OBSTRUCTIONS TO VISIBILITY.

...SOUTH CENTRAL NEBRASKA...

CITY           SKY/WX    TMP DP  RH WIND       PRES   REMARKS
GRAND ISLAND   SUNNY     66  56  70 NE9       30.24R
HASTINGS       SUNNY     67  56  67 NE8       30.24R
KEARNEY        SUNNY     66  55  67 E8        30.25R
ORD            SUNNY     66  52  60 NE3       30.24R
YORK           SUNNY     66  57  72 NE9       30.22R
AURORA         SUNNY     66  56  71 NE7       30.23R
LEXINGTON      SUNNY     67  54  63 NE13      30.25R
HOLDREGE       SUNNY     64  54  69 E9        30.25R
HEBRON         SUNNY     72  58  61 NE12      30.20R

...NEBRASKA PANHANDLE...

CITY           SKY/WX    TMP DP  RH WIND       PRES   REMARKS
CHADRON        SUNNY     64  47  53 CALM      30.27F
ALLIANCE       SUNNY     64  46  52 S12       30.31S
SCOTTSBLUFF    SUNNY     64  53  67 E13       30.30S
SIDNEY         SUNNY     65  49  56 S10       30.34S

...WESTERN AND NORTH CENTRAL NEBRASKA...

CITY           SKY/WX    TMP DP  RH WIND       PRES   REMARKS
VALENTINE      SUNNY     67  47  48 SW7       30.27R
AINSWORTH      SUNNY     65  53  65 E3        30.27R
ONEILL         SUNNY     64  55  73 NW5       30.24S
BROKEN BOW     SUNNY     68  49  50 NE8       30.26R
IMPERIAL       SUNNY     66  51  58 E7        30.31R
NORTH PLATTE   SUNNY     65  55  70 NW3       30.29R
MCCOOK         SUNNY     66  55  67 E8        30.27R

...EASTERN NEBRASKA...

CITY           SKY/WX    TMP DP  RH WIND       PRES   REMARKS
NORFOLK        SUNNY     66  55  67 N8        30.20S
SO SIOUX CITY  SUNNY     66  58  75 NW9       30.17R
TEKAMAH        SUNNY     68  55  63 N8        30.17R
ALBION         SUNNY     67  57  71 N3        30.23R
OMAHA EPPLEY   MOSUNNY   69  58  67 N9        30.16R
OFFUTT AFB     SUNNY     71  56  61 NW9       30.16R
MILLARD        SUNNY     70  57  63 N7        30.17R
LINCOLN        SUNNY     70  57  63 NE9       30.19R
NEBRASKA CITY  MOSUNNY   70  69  98 N8        30.16R
BEATRICE       SUNNY     70  63  78 N9        30.18R
FALLS CITY     CLOUDY    69  65  86 N9        30.13R

...NORTHERN KANSAS...

CITY           SKY/WX    TMP DP  RH WIND       PRES   REMARKS
GOODLAND       CLOUDY    66  60  81 NE9       30.30S
HILL CITY      PTSUNNY   71  63  75 NE14      30.24R
NORTON         SUNNY     70  52  52 NE10      30.25R
PHILLIPSBURG   SUNNY     73  55  53 NE14      30.23S
SMITH CENTER   PTSUNNY   72  54  53 NE14      30.22R
HAYS           MOSUNNY   72  63  73 NE23G29   30.20R
RUSSELL        SUNNY     73  61  65 NE20G28   30.17R
CONCORDIA      CLOUDY    69  65  86 NE12      30.19R
SALINA         MOSUNNY   76  64  66 NE13      30.14R
TOPEKA         MOSUNNY   73  68  84 N8        30.12R



USA.gov is the U.S. government's official web portal to all federal, state and local government web resources and services.